Location: Unspecified
(0.0000°N, 0.0000°E)
Time: 02:06:16
(UTC+00:00)

Explorer 11/Cluster Stage 4 - Pass Details

Date: 20 April 2026
Orbit: 463 x 1174 km, 28.8° (Epoch: 15 May)

Event Time Altitude Azimuth Distance (km) Brightness Sun altitude
Exits shadow 04:31:52 27° 178° (S) 1,038 7.1 -21.3°
Maximum altitude 04:32:57 31° 148° (SSE) 959 7.2 -21.1°
Drops below altitude 10° 04:36:54 10° 85° (E) 1,947 9.8 -20.1°
Sets 04:39:39 0° 75° (ENE) 2,978 11.2 -19.4°
